• In Belgium
  • List of Countries
  • For 7 days
  • Water Temperature
  • Satellite Maps
  • Weather Map
  • Weather Widgets
  • user-avatar
    Login

    Hourly Weather Silivri

    Today, 23 February, Friday

    Time Temperature Precipitation Wind Pressure Humidity
    00:00 +6°C° 0 mm 4 mps 755 mmHg 93%
    01:00 +6°C° 0 mm 4 mps 755 mmHg 92%
    02:00 +6°C° 0 mm 4 mps 755 mmHg 92%
    03:00 +6°C° 0 mm 4 mps 755 mmHg 92%
    04:00 +6°C° 0 mm 5 mps 755 mmHg 91%
    05:00 +6°C° 0 mm 5 mps 755 mmHg 91%
    06:00 +5°C° 0 mm 6 mps 755 mmHg 90%
    07:00 +5°C° 0 mm 6 mps 756 mmHg 90%
    08:00 +5°C° 0 mm 6 mps 756 mmHg 90%
    09:00 +5°C° 0 mm 7 mps 756 mmHg 87%
    10:00 +6°C° 0 mm 7 mps 756 mmHg 85%
    11:00 +8°C° 0 mm 7 mps 756 mmHg 83%
    12:00 +6°C° 0 mm 7 mps 756 mmHg 83%
    13:00 +6°C° 0 mm 7 mps 756 mmHg 82%
    14:00 +6°C° 0 mm 7 mps 755 mmHg 82%
    15:00 +6°C° 0 mm 7 mps 755 mmHg 83%
    16:00 +5°C° 0 mm 7 mps 755 mmHg 84%
    17:00 +5°C° 0 mm 7 mps 755 mmHg 84%
    18:00 +5°C° 0 mm 7 mps 756 mmHg 85%
    19:00 +4°C° 0 mm 7 mps 756 mmHg 86%
    20:00 +4°C° 0 mm 7 mps 756 mmHg 87%
    21:00 +4°C° 0 mm 7 mps 756 mmHg 88%
    22:00 +3°C° 0 mm 6 mps 756 mmHg 89%
    23:00 +3°C° 0 mm 6 mps 756 mmHg 90%

    Tomorrow, 24 February, Saturday

    Time Temperature Precipitation Wind Pressure Humidity
    00:00 +3°C° 0 mm 6 mps 756 mmHg 89%
    01:00 +3°C° 0 mm 6 mps 755 mmHg 89%
    02:00 +3°C° 0 mm 6 mps 755 mmHg 89%
    03:00 +3°C° 0 mm 6 mps 755 mmHg 89%
    04:00 +3°C° 0 mm 5 mps 755 mmHg 89%
    05:00 +3°C° 0 mm 5 mps 755 mmHg 89%
    06:00 +3°C° 0 mm 5 mps 755 mmHg 89%
    07:00 +3°C° 0 mm 5 mps 754 mmHg 89%
    08:00 +3°C° 0 mm 5 mps 754 mmHg 89%
    09:00 +5°C° 0 mm 5 mps 754 mmHg 86%
    10:00 +6°C° 0 mm 5 mps 754 mmHg 83%
    11:00 +7°C° 0 mm 4 mps 754 mmHg 80%
    12:00 +7°C° 0 mm 5 mps 753 mmHg 79%
    13:00 +8°C° 0 mm 5 mps 752 mmHg 78%
    14:00 +8°C° 0 mm 5 mps 752 mmHg 77%
    15:00 +7°C° 0 mm 6 mps 752 mmHg 79%
    16:00 +7°C° 0 mm 6 mps 751 mmHg 81%
    17:00 +5°C° 0 mm 6 mps 751 mmHg 83%
    18:00 +5°C° 0.1 mm 7 mps 751 mmHg 84%
    19:00 +5°C° 0.1 mm 7 mps 750 mmHg 85%
    20:00 +4°C° 0.1 mm 8 mps 750 mmHg 85%
    21:00 +4°C° 1 mm 8 mps 750 mmHg 86%
    22:00 +4°C° 1 mm 8 mps 750 mmHg 86%
    23:00 +4°C° 1 mm 8 mps 750 mmHg 87%

    Day after tomorrow, 25 February, Sunday

    Time Temperature Precipitation Wind Pressure Humidity
    00:00 +4°C° 1 mm 8 mps 750 mmHg 87%
    01:00 +4°C° 1 mm 8 mps 750 mmHg 87%
    02:00 +4°C° 1 mm 8 mps 750 mmHg 87%
    03:00 +2°C° 0.8 mm 8 mps 750 mmHg 87%
    04:00 +2°C° 0.8 mm 8 mps 750 mmHg 87%
    05:00 +2°C° 0.8 mm 9 mps 751 mmHg 86%
    06:00 +2°C° 0.6 mm 9 mps 751 mmHg 87%
    07:00 +2°C° 0.6 mm 9 mps 752 mmHg 87%
    08:00 +2°C° 0.6 mm 9 mps 752 mmHg 87%
    09:00 +2°C° 0.4 mm 9 mps 753 mmHg 85%
    10:00 +2°C° 0.4 mm 9 mps 754 mmHg 84%
    11:00 +2°C° 0.4 mm 9 mps 754 mmHg 83%
    12:00 +2°C° 0.1 mm 9 mps 754 mmHg 82%
    13:00 +1°C° 0.1 mm 9 mps 755 mmHg 81%
    14:00 +1°C° 0.1 mm 9 mps 755 mmHg 81%
    15:00 +1°C° 0.1 mm 9 mps 755 mmHg 81%
    16:00 0°C° 0.1 mm 8 mps 755 mmHg 81%
    17:00 0°C° 0.1 mm 8 mps 755 mmHg 82%
    18:00 0°C° 0.1 mm 8 mps 756 mmHg 82%
    19:00 0°C° 0.1 mm 8 mps 756 mmHg 82%
    20:00 -1°C° 0.1 mm 8 mps 757 mmHg 83%
    21:00 -1°C° 0 mm 8 mps 757 mmHg 84%
    22:00 -1°C° 0 mm 8 mps 757 mmHg 85%
    23:00 -1°C° 0 mm 8 mps 757 mmHg 87%

    26 February, Monday

    Time Temperature Precipitation Wind Pressure Humidity
    00:00 -1°C° 0.1 mm 8 mps 756 mmHg 87%
    01:00 0°C° 0.1 mm 8 mps 756 mmHg 87%
    02:00 0°C° 0.1 mm 7 mps 756 mmHg 87%
    03:00 0°C° 0.1 mm 8 mps 756 mmHg 88%
    04:00 +1°C° 0.1 mm 9 mps 755 mmHg 88%
    05:00 +2°C° 0.1 mm 9 mps 755 mmHg 88%
    06:00 +2°C° 0.1 mm 10 mps 755 mmHg 87%
    07:00 +1°C° 0.1 mm 10 mps 754 mmHg 87%
    08:00 +1°C° 0.1 mm 10 mps 754 mmHg 86%
    09:00 +2°C° 0.1 mm 11 mps 753 mmHg 85%
    10:00 +2°C° 0.1 mm 11 mps 753 mmHg 84%
    11:00 +2°C° 0.1 mm 12 mps 752 mmHg 83%
    12:00 +2°C° 0.1 mm 12 mps 751 mmHg 83%
    13:00 +3°C° 0.1 mm 12 mps 750 mmHg 83%
    14:00 +3°C° 0.1 mm 12 mps 749 mmHg 83%
    15:00 +3°C° 0.1 mm 12 mps 749 mmHg 84%
    16:00 +3°C° 0.1 mm 12 mps 748 mmHg 85%
    17:00 +3°C° 0.1 mm 12 mps 747 mmHg 85%
    18:00 +3°C° 0.1 mm 13 mps 747 mmHg 85%
    19:00 +3°C° 0.1 mm 13 mps 746 mmHg 86%
    20:00 +3°C° 0.1 mm 13 mps 746 mmHg 86%
    21:00 +3°C° 0.3 mm 12 mps 745 mmHg 87%
    22:00 +3°C° 0.3 mm 11 mps 745 mmHg 88%
    23:00 +3°C° 0.3 mm 10 mps 744 mmHg 90%

    27 February, Tuesday

    Time Temperature Precipitation Wind Pressure Humidity
    00:00 +5°C° 0.7 mm 8 mps 744 mmHg 91%
    01:00 +5°C° 0.7 mm 6 mps 743 mmHg 93%
    02:00 +6°C° 0.7 mm 4 mps 743 mmHg 94%
    03:00 +6°C° 0.2 mm 5 mps 743 mmHg 94%
    04:00 +5°C° 0.2 mm 5 mps 743 mmHg 95%
    05:00 +4°C° 0.2 mm 6 mps 743 mmHg 95%
    06:00 +3°C° 0.1 mm 7 mps 744 mmHg 93%
    07:00 +2°C° 0.1 mm 9 mps 745 mmHg 92%
    08:00 +2°C° 0.1 mm 10 mps 746 mmHg 90%
    09:00 +1°C° 0 mm 10 mps 747 mmHg 88%
    10:00 +1°C° 0 mm 9 mps 748 mmHg 85%
    11:00 +1°C° 0 mm 9 mps 749 mmHg 83%
    12:00 +2°C° 0 mm 7 mps 749 mmHg 79%
    13:00 +3°C° 0 mm 6 mps 750 mmHg 75%
    14:00 +5°C° 0 mm 4 mps 750 mmHg 71%
    15:00 +4°C° 0.3 mm 4 mps 751 mmHg 75%
    16:00 +4°C° 0.3 mm 4 mps 751 mmHg 78%
    17:00 +3°C° 0.3 mm 4 mps 751 mmHg 81%
    18:00 +3°C° 0 mm 4 mps 752 mmHg 83%
    19:00 +1°C° 0 mm 5 mps 752 mmHg 85%
    20:00 +1°C° 0 mm 5 mps 753 mmHg 88%
    21:00 +1°C° 0 mm 5 mps 753 mmHg 89%
    22:00 0°C° 0 mm 5 mps 753 mmHg 89%
    23:00 0°C° 0 mm 5 mps 753 mmHg 90%

    28 February, Wednesday

    Time Temperature Precipitation Wind Pressure Humidity
    00:00 +1°C° 0.1 mm 6 mps 753 mmHg 91%
    01:00 +1°C° 0.1 mm 6 mps 753 mmHg 92%
    02:00 +1°C° 0.1 mm 6 mps 753 mmHg 92%
    03:00 +2°C° 0.9 mm 6 mps 753 mmHg 93%
    04:00 +2°C° 0.9 mm 6 mps 752 mmHg 94%
    05:00 +2°C° 0.9 mm 6 mps 752 mmHg 95%
    06:00 +2°C° 1 mm 5 mps 752 mmHg 95%
    07:00 +3°C° 1 mm 4 mps 752 mmHg 94%
    08:00 +3°C° 1 mm 4 mps 752 mmHg 94%
    09:00 +3°C° 1.2 mm 4 mps 752 mmHg 94%
    10:00 +2°C° 1.2 mm 5 mps 752 mmHg 93%
    11:00 +1°C° 1.2 mm 5 mps 752 mmHg 93%
    12:00 +1°C° 1.4 mm 6 mps 752 mmHg 93%
    13:00 0°C° 1.4 mm 7 mps 752 mmHg 92%
    14:00 -1°C° 1.4 mm 8 mps 752 mmHg 92%
    15:00 -1°C° 1.1 mm 8 mps 753 mmHg 92%
    16:00 -2°C° 1.1 mm 8 mps 754 mmHg 92%
    17:00 -2°C° 1.1 mm 8 mps 755 mmHg 92%
    18:00 -4°C° 0.6 mm 8 mps 756 mmHg 92%
    19:00 -3°C° 0.6 mm 7 mps 757 mmHg 92%
    20:00 -3°C° 0.6 mm 7 mps 758 mmHg 91%
    21:00 -3°C° 0.1 mm 6 mps 758 mmHg 92%
    22:00 -4°C° 0.1 mm 6 mps 759 mmHg 92%
    23:00 -4°C° 0.1 mm 5 mps 759 mmHg 92%
    Show more